Bintulu, Malaysia

7:20 PM MYT on July 26, 2016 (GMT +0800)
Bintulu

Weather History for WBGB - January, 2013

Change the Weather History Date:

Monday, January 21, 2013

  Actual Average Record
Temperature  
Mean Temperature 81 °F -  
Max Temperature 89 °F 86 °F - ()
Min Temperature 73 °F 74 °F - ()
Cooling Degree Days 16    
Growing Degree Days 31 (Base 50)    
Moisture  
Dew Point 76 °F    
Average Humidity 86    
Maximum Humidity 100    
Minimum Humidity 63    
Precipitation  
Precipitation 0.02 in 0.39 in - ()
Sea Level Pressure  
Sea Level Pressure 29.85 in    
Wind  
Wind Speed 3 mph ()    
Max Wind Speed 7 mph    
Max Gust Speed -    
Visibility 7.7 miles    
Events Rain , Thunderstorm    
T = Trace of Precipitation, MM = Missing Value Source: Averaged Metar Reports

Daily Weather History Graph

Daily Weather History Graph

Search for Another Location

Airport or City:

Trip Planner

Search our weather history database for the weather conditions in past years. The results will help you decide how hot, cold, wet, or windy it might be!

Date:

Astronomy

Jan. 21, 2013 Rise Set
Actual Time 6:40 AM MYT 6:38 PM MYT
Civil Twilight 6:18 AM MYT 7:00 PM MYT
Nautical Twilight 5:52 AM MYT 7:25 PM MYT
Astronomical Twilight 5:27 AM MYT 7:51 PM MYT
Moon 1:56 PM MYT (1/21) 1:40 AM MYT (1/21)
Length of Visible Light 12h 42m
Length of Day
11h 58m
Waxing Gibbous, 70% of the Moon is Illuminated
Jan 21
Waxing Gibbous
Jan 27
Full
Feb 3
Last Quarter
Feb 10
New
Feb 18
First Quarter

Hourly Weather History & Observations

Time (MYT) Temp. Heat Index Dew Point Humidity Pressure Visibility Wind Dir Wind Speed Gust Speed Precip Events Conditions
12:00 AM 78.8 °F - 77.0 °F 94% 29.89 in 6.2 mi SE 2.3 mph - N/A   Mostly Cloudy
1:00 AM 77.0 °F - 73.4 °F 89% 29.86 in 6.2 mi SE 3.5 mph - N/A   Mostly Cloudy
2:00 AM 76 °F - 73 °F 86% 29.85 in 11 mi South 3.5 mph - -   Partly Cloudy
2:00 AM 75.2 °F - 73.4 °F 94% 29.83 in 6.2 mi South 3.5 mph - N/A   Mostly Cloudy
3:00 AM 75.2 °F - 73.4 °F 94% 29.83 in 6.2 mi East 5.8 mph - N/A   Mostly Cloudy
4:00 AM 75.2 °F - 73.4 °F 94% 29.83 in 6.2 mi East 2.3 mph - N/A Thunderstorm Thunderstorm
5:00 AM 74 °F - 73 °F 95% 29.83 in 11 mi ESE 2.3 mph - - Thunderstorm Thunderstorm
5:00 AM 75.2 °F - 73.4 °F 94% 29.83 in 6.2 mi ESE 2.3 mph - N/A Thunderstorm Thunderstorm
6:00 AM 75.2 °F - 73.4 °F 94% 29.83 in 6.2 mi East 1.2 mph - N/A   Mostly Cloudy
7:00 AM 73.4 °F - 73.4 °F 100% 29.83 in 6.2 mi SE 1.2 mph - N/A   Mostly Cloudy
8:00 AM 79 °F - 75 °F 85% 29.90 in 19 mi East 2.3 mph - -   Partly Cloudy
8:00 AM 78.8 °F - 75.2 °F 89% 29.89 in 6.2 mi East 2.3 mph - N/A   Mostly Cloudy
9:00 AM 82.4 °F 89.5 °F 75.2 °F 79% 29.92 in 6.2 mi SE 2.3 mph - N/A   Mostly Cloudy
10:00 AM 84.2 °F 96.1 °F 78.8 °F 84% 29.89 in 6.2 mi ENE 3.5 mph - N/A   Mostly Cloudy
11:00 AM 87 °F - 76 °F 63% 29.90 in 19 mi ESE 4.6 mph - -   Partly Cloudy
11:00 AM 86.0 °F 96.9 °F 77.0 °F 74% 29.89 in 6.2 mi ESE 4.6 mph - N/A   Mostly Cloudy
12:00 PM 86.0 °F 99.3 °F 78.8 °F 79% 29.86 in 6.2 mi NW 5.8 mph - N/A   Mostly Cloudy
1:00 PM 89.6 °F 104.7 °F 78.8 °F 70% 29.86 in 6.2 mi NNW 6.9 mph - N/A   Mostly Cloudy
2:00 PM 87 °F - 78 °F 69% 29.83 in 9 mi North 6.9 mph - -   Haze
2:00 PM 87.8 °F 102.5 °F 78.8 °F 75% 29.83 in 6.2 mi North 6.9 mph - N/A   Mostly Cloudy
3:00 PM 87.8 °F 102.5 °F 78.8 °F 75% 29.80 in 6.2 mi NNW 5.8 mph - N/A   Mostly Cloudy
4:00 PM 87.8 °F 102.5 °F 78.8 °F 75% 29.80 in 6.2 mi NW 6.9 mph - N/A   Mostly Cloudy
5:00 PM 86 °F - 78 °F 73% 29.81 in 11 mi North 6.9 mph - -   Haze
5:00 PM 86.0 °F 99.3 °F 78.8 °F 79% 29.80 in 6.2 mi North 6.9 mph - N/A   Mostly Cloudy
6:00 PM 86.0 °F 99.3 °F 78.8 °F 79% 29.80 in 6.2 mi North 5.8 mph - N/A Thunderstorm Thunderstorm
7:00 PM 78.8 °F - 77.0 °F 94% 29.83 in 6.2 mi East 1.2 mph - N/A Rain , Thunderstorm Light Thunderstorms and Rain
8:00 PM 79 °F - 78 °F 94% 29.87 in 7 mi East 2.3 mph - - Rain , Thunderstorm Thunderstorms and Rain
8:00 PM 78.8 °F - 77.0 °F 94% 29.86 in 6.2 mi East 2.3 mph - N/A Rain , Thunderstorm Light Thunderstorms and Rain
9:00 PM 78.8 °F - 77.0 °F 94% 29.89 in 6.2 mi ESE 3.5 mph - N/A Rain Light Rain
10:00 PM 77.0 °F - 77.0 °F 100% 29.89 in 6.2 mi East 1.2 mph - N/A   Mostly Cloudy
11:00 PM 77 °F - 76 °F 95% 29.91 in 11 mi ESE 4.6 mph - -   Partly Cloudy
11:00 PM 77.0 °F - 75.2 °F 94% 29.89 in 6.2 mi ESE 4.6 mph - N/A   Mostly Cloudy